Kenai, AK

1:36 PM AKST on November 22, 2017 (GMT -0900)
Kenai Municipal

Weather History for PAEN - August, 2013

Change the Weather History Date:

Sunday, August 25, 2013

  Actual Average Record
Temperature  
Mean Temperature 54 °F -  
Max Temperature 66 °F 60 °F 76 °F (1987)
Min Temperature 42 °F 43 °F 31 °F (1969)
Degree Days  
Heating Degree Days 11    
Growing Degree Days 4 (Base 50)    
Moisture  
Dew Point 40 °F    
Average Humidity 63    
Maximum Humidity 93    
Minimum Humidity 29    
Precipitation  
Precipitation 0.00 in - - ()
Sea Level Pressure  
Sea Level Pressure 29.73 in    
Wind  
Wind Speed 3 mph (NNE)    
Max Wind Speed 8 mph    
Max Gust Speed -    
Visibility 10 miles    
Events      
Averages and records for this station are not official NWS values.
T = Trace of Precipitation, MM = Missing Value Source: NWS Daily Summary

Daily Weather History Graph

Daily Weather History Graph

Search for Another Location

Airport or City:

Trip Planner

Search our weather history database for the weather conditions in past years. The results will help you decide how hot, cold, wet, or windy it might be!

Date:

Astronomy

Aug. 25, 2013 Rise Set
Actual Time 6:42 AM AKDT 9:29 PM AKDT
Civil Twilight 5:54 AM AKDT 10:17 PM AKDT
Nautical Twilight 4:48 AM AKDT 11:22 PM AKDT
Astronomical Twilight 3:01 AM AKDT 1:02 AM AKDT
Moon 10:24 PM AKDT (8/25) 1:34 PM AKDT (8/25)
Length of Visible Light 16h 23m
Length of Day
14h 47m
Waning Gibbous, 74% of the Moon is Illuminated
Aug 25
Waning Gibbous
Aug 28
Last Quarter
Sep 5
New
Sep 12
First Quarter
Sep 19
Full

Hourly Weather History & Observations

Time (AKDT) Temp. Windchill Dew Point Humidity Pressure Visibility Wind Dir Wind Speed Gust Speed Precip Events Conditions
12:53 AM 48.0 °F - 45.0 °F 89% 29.73 in 10.0 mi NNW 3.5 mph - N/A   Clear
1:53 AM 48.0 °F - 42.1 °F 80% 29.74 in 10.0 mi SE 6.9 mph - N/A   Clear
2:53 AM 50.0 °F - 39.0 °F 66% 29.75 in 10.0 mi NE 4.6 mph - N/A   Clear
3:53 AM 44.1 °F - 39.9 °F 85% 29.75 in 10.0 mi Calm Calm - N/A   Clear
4:53 AM 42.1 °F - 37.9 °F 85% 29.75 in 10.0 mi Calm Calm - N/A   Clear
5:53 AM 42.1 °F 39.2 °F 37.0 °F 82% 29.75 in 10.0 mi NE 4.6 mph - N/A   Clear
6:53 AM 42.1 °F - 39.9 °F 92% 29.75 in 10.0 mi Calm Calm - N/A   Clear
7:53 AM 42.1 °F - 39.0 °F 89% 29.75 in 10.0 mi Calm Calm - N/A   Clear
8:53 AM 51.1 °F - 42.1 °F 71% 29.75 in 10.0 mi Calm Calm - N/A   Clear
9:53 AM 54.0 °F - 42.1 °F 64% 29.75 in 10.0 mi North 4.6 mph - N/A   Clear
10:53 AM 55.9 °F - 42.1 °F 60% 29.73 in 10.0 mi NE 8.1 mph - N/A   Clear
11:53 AM 59.0 °F - 42.1 °F 53% 29.73 in 10.0 mi Calm Calm - N/A   Clear
12:53 PM 61.0 °F - 37.9 °F 42% 29.72 in 10.0 mi NNE 5.8 mph - N/A   Clear
1:53 PM 63.0 °F - 37.0 °F 38% 29.72 in 10.0 mi North 6.9 mph - N/A   Clear
2:53 PM 64.9 °F - 37.0 °F 36% 29.71 in 10.0 mi NNE 6.9 mph - N/A   Clear
3:53 PM 64.9 °F - 35.1 °F 33% 29.70 in 10.0 mi NNW 4.6 mph - N/A   Clear
4:53 PM 66.0 °F - 33.1 °F 29% 29.70 in 10.0 mi Variable 3.5 mph - N/A   Clear
5:53 PM 66.0 °F - 33.1 °F 29% 29.70 in 10.0 mi Calm Calm - N/A   Clear
6:53 PM 64.0 °F - 36.0 °F 35% 29.69 in 10.0 mi NE 4.6 mph - N/A   Clear
7:53 PM 63.0 °F - 39.9 °F 43% 29.69 in 10.0 mi NNE 4.6 mph - N/A   Clear
8:53 PM 57.0 °F - 43.0 °F 59% 29.70 in 10.0 mi Calm Calm - N/A   Clear
9:53 PM 54.0 °F - 43.0 °F 66% 29.70 in 10.0 mi Calm Calm - N/A   Clear
10:53 PM 48.9 °F - 46.0 °F 90% 29.72 in 10.0 mi Calm Calm - N/A   Clear
11:53 PM 45.0 °F - 43.0 °F 93% 29.73 in 10.0 mi Calm Calm - N/A   Clear